This is the latest recevied weather packets stored in our database for station/object F4NFR-13. If no packets are shown the sender has not sent any weather packets the latest 10 day(s).
| Time | Temp. | Humidity | Pressure | Rain* | Wind** | Luminosity | Snow |
|---|---|---|---|---|---|---|---|
| 1778223976 | 12.22° C | 80% | 1018.4 hPa | 0 mm | - | 277 W/m² | - |
| 1778223674 | 11.11° C | 82% | 1018.4 hPa | 0 mm | - | 260 W/m² | - |
| 1778223372 | 11.11° C | 82% | 1018.4 hPa | 0 mm | - | 207 W/m² | - |
| 1778222767 | 11.11° C | 80% | 1018.4 hPa | 0 mm | - | 199 W/m² | - |
| 1778222464 | 11.11° C | 82% | 1018.4 hPa | 0 mm | - | 179 W/m² | - |
| 1778222162 | 10° C | 82% | 1018.4 hPa | 0 mm | - | 131 W/m² | - |
| 1778221557 | 10° C | 84% | 1018.4 hPa | 0 mm | - | 70 W/m² | - |
| 1778221255 | 10° C | 85% | 1018.4 hPa | 0 mm | - | 101 W/m² | - |
| 1778220952 | 8.89° C | 84% | 1018.4 hPa | 0 mm | - | 92 W/m² | - |
| 1778220650 | 8.89° C | 85% | 1018.4 hPa | 0 mm | - | 85 W/m² | - |
| 1778220347 | 8.89° C | 85% | 1018.4 hPa | 0 mm | - | 80 W/m² | - |
| 1778220045 | 8.89° C | 84% | 1018.4 hPa | 0 mm | - | 75 W/m² | - |
| 1778219743 | 8.89° C | 82% | 1018.4 hPa | 0 mm | - | 71 W/m² | - |
| 1778219137 | 10° C | 84% | 1018.4 hPa | 0 mm | - | 61 W/m² | - |
| 1778218533 | 8.89° C | 89% | 1018.4 hPa | 0 mm | - | 53 W/m² | - |
| 1778218230 | 8.89° C | 90% | 1018.4 hPa | 0 mm | - | 49 W/m² | - |
| 1778217928 | 7.78° C | 93% | 1018.4 hPa | 0 mm | - | 45 W/m² | - |
| 1778217626 | 7.78° C | 95% | 1018.4 hPa | 0 mm | - | 40 W/m² | - |
| 1778217021 | 7.78° C | 97% | 1018.4 hPa | 0 mm | - | 33 W/m² | - |
| 1778216718 | 7.22° C | 98% | 1018.4 hPa | 0 mm | - | 30 W/m² | - |
| 1778216416 | 7.22° C | 98% | 1018.4 hPa | 0 mm | - | 26 W/m² | - |
| 1778216113 | 7.22° C | 99% | 1018.4 hPa | 0 mm | - | 23 W/m² | - |
| 1778215509 | 6.11° C | 99% | 1018.1 hPa | 0 mm | - | 16 W/m² | - |
| 1778215207 | 6.11° C | 99% | 1018.1 hPa | 0 mm | - | 13 W/m² | - |
| 1778214904 | 6.11° C | 99% | 1018.1 hPa | 0 mm | - | 10 W/m² | - |
* Rain latest hour (hover to see other rain measurements)
** Current wind speed in m/s (hover to see current wind gust speed)